Theta_e
283 283 283 283 284 284 284 284 282 278 280 285 285 291 292 291 290 291 292 292 294 294 295 298 299 301 302 304 307 309 316 316 314 313 312 312 312 313
282 282 282 282 282 283 283 283 283 281 279 283 285 287 288 288 289 289 290 291 292 292 293 295 296 298 300 301 304 308 314 314 313 312 312 311 311 312
281 280 280 281 281 281 281 281 281 281 279 282 284 285 285 285 287 288 289 290 291 291 292 293 294 295 297 299 301 303 310 312 311 311 312 311 311 311
278 278 278 279 278 279 279 279 279 280 279 278 280 281 282 284 285 285 286 287 289 290 291 292 292 293 295 297 298 300 303 306 307 309 310 310 310 311
278 277 277 277 276 277 277 276 277 277 278 278 278 280 281 283 282 284 284 286 288 289 290 290 291 292 293 294 296 298 298 300 304 304 305 307 308 309
277 277 276 276 275 275 275 275 276 276 276 276 276 277 278 280 282 281 281 285 285 287 289 289 290 291 291 292 293 294 296 298 300 303 303 303 304 305
276 276 276 275 275 275 275 275 274 274 274 274 274 275 275 276 276 278 278 281 282 283 285 287 289 290 291 291 291 292 294 296 298 299 301 301 301 302
274 274 274 275 274 275 275 276 276 274 273 273 273 272 273 275 276 276 275 275 274 281 281 281 284 285 289 290 291 291 291 293 296 297 299 300 300 300
273 273 273 273 274 273 274 275 275 276 277 275 273 273 273 274 275 274 274 275 275 278 279 277 281 281 284 285 288 290 290 291 293 295 296 299 299 299
273 273 272 273 273 273 273 274 274 275 275 276 276 276 276 277 277 276 276 277 278 279 279 275 279 280 283 286 287 287 289 290 291 293 294 296 298 298
273 273 273 273 275 276 276 274 275 276 278 279 279 280 280 280 280 278 276 275 273 275 278 276 277 277 279 280 283 285 288 289 290 292 293 294 295 297
274 274 276 275 277 278 276 275 274 275 276 277 277 278 279 279 279 278 277 273 273 273 277 275 275 276 273 279 281 284 286 289 290 289 292 293 294 294
274 274 275 276 277 278 277 275 274 276 275 275 275 276 277 277 278 278 278 276 274 273 277 277 275 275 275 274 277 280 282 283 288 288 289 291 293 294
273 274 275 276 275 275 274 274 275 274 272 272 272 272 273 274 275 276 277 277 278 276 277 277 274 273 273 272 272 276 278 281 285 286 287 289 291 293
275 275 274 273 272 271 271 271 270 269 269 268 268 269 271 272 273 273 274 275 275 276 277 277 275 274 274 271 271 273 273 276 281 285 286 286 288 290
274 270 270 269 269 269 267 268 267 267 266 266 267 268 270 270 270 271 271 272 272 272 275 276 275 274 272 273 272 271 273 273 279 283 285 286 288 289
271 268 266 265 265 266 266 266 266 266 266 266 266 266 267 268 269 271 271 271 270 270 271 274 275 275 274 273 270 272 272 274 275 280 283 283 286 288
267 264 263 264 263 264 264 264 265 265 266 265 265 266 266 267 268 269 271 270 270 270 271 272 273 273 273 273 275 272 272 273 275 279 283 282 283 286
263 263 262 263 263 263 264 264 263 265 265 265 265 266 266 267 267 268 269 270 270 270 271 273 273 272 270 268 274 279 273 274 276 278 282 282 281 284
261 261 261 262 262 262 263 263 263 263 264 264 265 265 266 266 266 267 268 268 269 270 271 272 273 273 272 273 273 278 282 276 278 279 281 282 284 286
261 260 261 261 261 261 262 262 262 262 263 263 264 265 266 266 266 266 267 267 268 269 270 272 275 277 278 280 275 276 280 283 283 282 282 280 279 281
260 259 260 260 260 260 261 261 261 262 262 263 264 265 266 267 266 265 266 267 267 269 270 273 276 279 278 277 277 278 277 280 282 280 281 282 280 278
259 259 259 259 259 259 260 260 260 261 261 262 263 264 265 265 266 266 266 267 268 268 270 271 274 277 276 276 275 275 275 277 277 274 273 278 279 279
Wind_Speed
6 6 6 6 6 7 8 8 10 13 13 11 11 8 7 9 13 14 15 19 21 22 22 22 23 23 22 24 25 25 26 23 22 21 21 21 20 19
5 8 7 6 8 7 8 9 9 12 14 11 12 14 14 11 13 15 15 18 21 20 20 21 22 23 23 23 25 26 25 24 24 24 23 23 23 22
8 8 10 10 8 9 9 9 10 10 13 13 12 14 18 17 14 13 13 14 12 20 21 22 22 23 23 24 24 26 25 23 24 24 23 24 23 23
9 10 11 9 12 11 9 13 12 13 12 19 15 12 16 17 17 17 13 12 14 17 25 25 24 23 23 24 24 24 24 25 25 24 24 23 24 24
9 10 11 11 12 10 12 12 12 11 12 13 16 12 12 12 16 15 14 14 12 19 25 25 23 23 23 24 24 23 23 24 25 25 24 23 24 24
9 10 11 12 13 13 13 14 13 13 13 13 13 13 12 12 11 13 13 10 11 11 13 17 20 23 25 25 23 21 23 24 24 25 26 24 25 24
10 10 11 13 18 17 11 13 15 12 11 12 13 13 13 12 12 11 14 13 13 11 12 10 10 10 10 13 14 19 21 23 25 25 26 26 25 25
11 11 11 13 14 18 20 21 19 14 14 12 13 15 18 14 12 11 12 13 16 11 13 11 11 12 11 10 17 20 22 21 23 26 27 27 27 26
11 11 11 10 14 14 17 21 20 22 23 17 17 16 17 16 15 15 15 14 14 11 14 16 11 13 11 14 26 25 24 25 22 24 26 28 28 27
11 12 13 14 14 16 17 16 17 16 17 14 16 17 17 16 16 16 17 16 14 12 13 17 11 13 11 11 24 29 29 27 26 25 25 27 29 28
11 12 13 16 20 24 18 17 17 16 19 29 30 31 32 31 26 14 12 12 13 12 11 13 11 13 13 13 13 28 28 28 28 27 26 26 27 28
11 12 16 18 24 26 18 17 18 14 14 16 15 19 23 20 27 18 12 13 13 14 12 11 10 11 12 9 10 10 12 24 28 31 29 28 27 14
10 10 10 22 25 26 28 17 19 21 19 14 12 11 11 12 11 12 13 13 13 15 12 12 11 11 12 16 12 11 13 14 12 13 22 27 27 24
11 9 11 23 28 29 23 25 26 22 10 10 10 10 10 11 10 11 13 13 13 17 15 14 13 13 14 15 16 10 11 13 13 14 12 17 22 28
10 13 20 21 21 17 20 23 16 9 9 9 10 11 11 11 15 14 14 15 16 17 14 16 13 14 14 16 16 13 15 12 14 13 12 12 10 10
6 6 12 14 14 14 11 12 9 9 10 10 10 11 11 11 11 10 11 11 11 13 14 15 15 16 15 14 15 15 13 15 12 12 13 11 10 9
7 6 8 8 8 8 9 9 9 9 9 9 10 10 11 11 11 10 10 10 11 12 14 11 12 15 14 18 16 15 15 14 14 15 12 11 10 9
5 6 7 7 8 9 9 10 9 10 10 10 10 10 11 11 11 11 11 10 11 12 13 12 12 12 12 16 26 17 16 14 14 16 10 11 10 9
3 5 6 7 8 8 9 10 11 10 12 10 10 10 11 11 13 11 11 11 11 11 13 12 12 12 13 14 14 26 17 14 13 14 11 13 13 11
4 6 6 7 7 8 9 10 10 10 10 10 10 11 11 11 12 12 11 12 12 12 13 12 12 12 14 13 13 12 25 16 12 12 10 9 9 10
5 6 6 7 8 9 9 9 10 10 11 11 10 10 11 11 12 12 12 16 16 12 14 13 13 20 13 14 8 12 9 19 17 9 9 9 9 9
6 6 7 7 8 8 9 9 9 10 10 10 10 11 11 10 11 13 12 13 12 12 13 13 15 11 9 10 8 5 1 2 3 10 14 2 2 5
6 7 7 7 7 8 8 9 9 10 9 10 10 10 11 11 11 11 12 12 12 12 12 13 11 8 7 6 6 2 2 2 3 5 7 14 9 8
Wind_Direction
342 339 328 323 318 313 303 299 296 300 299 302 305 310 313 316 311 304 303 298 300 300 297 294 292 288 286 281 272 263 253 239 240 240 245 244 244 246
335 328 325 322 314 306 303 296 289 287 287 296 294 300 299 299 299 294 290 293 290 291 292 291 289 287 285 282 278 269 254 246 243 243 241 242 241 241
329 326 319 322 310 309 302 293 288 287 285 289 292 297 298 298 297 296 292 293 290 289 287 287 286 286 282 279 278 275 265 248 247 248 245 242 241 238
326 321 318 321 313 310 304 301 296 293 288 290 288 293 290 299 298 296 291 285 286 287 289 289 286 282 280 277 273 272 273 261 251 249 249 244 243 239
315 313 310 312 307 306 304 300 301 300 296 292 295 298 293 292 291 295 296 291 281 280 282 285 285 282 278 274 270 265 263 265 258 245 246 243 240 242
307 306 307 304 303 307 302 300 297 297 297 293 293 300 300 304 293 291 290 292 295 296 286 281 281 281 276 275 273 266 261 259 258 253 243 240 240 238
305 303 299 306 300 294 292 296 300 298 297 295 292 294 300 310 303 305 294 298 295 302 293 297 288 288 289 286 271 260 263 259 258 254 245 240 239 240
304 306 302 299 296 302 296 294 293 292 287 293 294 286 294 302 302 295 289 291 292 304 297 296 301 304 300 280 282 282 281 276 264 258 253 241 237 237
300 300 301 300 301 298 298 294 290 284 279 283 284 286 289 291 295 293 286 281 284 295 300 290 294 282 278 275 282 282 277 273 269 265 259 249 238 235
295 297 297 300 300 301 293 285 278 275 272 269 265 268 272 276 273 275 276 275 274 276 275 281 300 289 292 285 277 273 273 269 268 263 260 259 248 236
294 293 297 297 295 291 291 291 285 274 269 270 271 274 275 276 278 282 279 283 283 279 277 281 289 290 287 282 276 283 279 269 266 265 258 254 254 245
299 295 289 295 301 301 296 288 284 302 302 287 276 276 277 274 275 274 279 276 277 280 272 274 293 305 293 272 273 284 271 262 260 261 259 251 247 245
301 303 301 301 306 314 311 308 302 307 307 299 296 294 289 278 268 263 263 264 271 269 276 282 285 284 272 286 281 285 294 287 277 264 266 254 246 238
296 299 304 320 320 314 316 310 309 315 310 299 299 296 296 296 294 293 288 280 270 273 283 278 278 276 279 280 284 280 274 294 281 264 258 258 254 239
293 310 329 318 320 318 321 321 327 319 314 307 303 299 300 304 303 296 290 284 281 276 271 268 264 267 266 272 279 279 282 276 278 272 245 251 244 231
327 321 319 324 318 318 319 327 325 321 316 303 301 304 302 299 294 294 292 288 283 278 272 266 262 262 264 263 269 274 268 267 267 267 244 241 237 229
346 330 325 322 321 323 322 321 323 323 318 315 309 305 301 300 295 297 289 284 275 279 283 277 265 257 255 261 264 264 263 255 257 264 251 241 232 225
340 313 309 310 314 318 317 319 320 320 320 318 307 303 302 301 300 299 284 274 277 278 278 281 283 276 259 251 240 255 254 253 250 257 223 234 228 222
308 297 296 303 309 309 311 315 316 318 315 308 308 304 302 301 303 299 298 291 282 279 278 280 278 273 272 264 266 235 241 235 241 241 240 226 239 233
276 284 291 297 303 304 308 309 311 311 310 308 306 301 301 302 304 300 299 298 299 291 285 281 274 271 270 263 272 270 228 232 224 240 227 230 244 265
274 280 286 291 295 296 298 299 304 300 303 302 302 303 302 302 301 297 296 297 295 291 292 288 283 278 278 278 247 262 254 222 233 237 214 217 229 228
269 274 280 281 284 289 293 297 299 297 299 299 301 303 302 305 301 299 298 299 298 294 291 291 296 290 286 282 293 287 209 240 277 67 35 272 237 214
271 275 280 280 283 287 287 290 293 292 294 296 299 304 303 306 303 299 298 298 297 298 298 301 303 304 291 311 326 320 304 102 69 63 38 15 67 82